Location: Central Falls
(41.8900°N, 71.3929°W)
Time: 13:09:10
(UTC+00:00)

A-11 Canister half - Pass Details

Date: 07 December 2023
Orbit: 1512 x 1687 km, 47.2° (Epoch: 20 February)

Event Time Altitude Azimuth Distance (km) Brightness Sun altitude
Rises 04:59:30 0° 244° (WSW) 4,708 - -70.1°
Reaches altitude 10° 05:02:30 10° 244° (WSW) 3,747 - -70.0°
Maximum altitude 05:12:05 88° 333° (NNW) 1,610 - -69.3°
Drops below altitude 10° 05:22:05 10° 66° (ENE) 3,895 - -68.5°
Exits shadow 05:23:55 - 67° (ENE) 4,476 11.6 -68.3°
Sets 05:25:16 0° 67° (ENE) 4,903 11.9 -68.2°
